Location: Coopersdale
(40.3556°N, 78.9372°W)
Time: 09:14:05
(UTC+00:00)

Explorer 7 - All Passes

Search period start: 24 January 2021 00:00
Search period end: 03 February 2021 00:00
Orbit: 484 x 678 km, 50.3° (Epoch: 23 January)

Date Brightness Start Highest point End Pass type
(mag) Time Alt. Az. Time Alt. Az. Time Alt. Az.
24 Jan - 09:16:00 10° SW 09:19:42 63° SE 09:23:35 10° ENE visible
24 Jan - 10:56:59 10° W 11:00:25 29° NNW 11:04:00 10° NE visible
24 Jan - 12:38:50 10° NW 12:41:52 20° N 12:45:02 10° NE daylight
24 Jan - 14:19:24 10° NW 14:23:15 34° NNE 14:27:19 10° E daylight
24 Jan - 15:59:42 10° WNW 16:03:57 58° SW 16:08:27 10° SE daylight
25 Jan - 07:42:14 10° SSE 07:44:17 14° SE 07:46:22 10° E night (unlit)
25 Jan - 09:20:29 10° WSW 09:24:15 79° NNW 09:28:11 10° NE visible
25 Jan - 11:02:00 10° WNW 11:05:12 24° NNW 11:08:32 10° NE visible
25 Jan - 12:43:35 10° NW 12:46:43 21° N 12:49:59 10° ENE daylight
25 Jan - 14:23:54 10° NW 14:27:56 46° NNE 14:32:13 10° ESE daylight
25 Jan - 16:04:27 10° WNW 16:08:26 36° SW 16:12:36 10° SSE daylight
26 Jan - 07:45:34 10° S 07:48:38 24° SE 07:51:46 10° E night (unlit)
26 Jan - 09:25:11 10° WSW 09:28:52 51° NNW 09:32:42 10° NE visible
26 Jan - 11:07:01 10° WNW 11:10:02 21° N 11:13:09 10° NE visible
26 Jan - 12:48:14 10° NW 12:51:32 24° NNE 12:54:59 10° ENE daylight
26 Jan - 14:28:25 10° NW 14:32:35 67° NNE 14:37:01 10° ESE daylight
26 Jan - 16:09:26 10° W 16:12:51 22° SW 16:16:24 10° S daylight
27 Jan - 07:49:31 10° SSW 07:53:03 41° SE 07:56:40 10° ENE night (unlit)
27 Jan - 09:30:03 10° W 09:33:33 35° NNW 09:37:11 10° NE visible
27 Jan - 11:11:59 10° NW 11:14:52 19° N 11:17:53 10° NE visible
27 Jan - 12:52:47 10° NW 12:56:20 28° NNE 13:00:02 10° E daylight
27 Jan - 14:32:58 10° WNW 14:37:09 80° SW 14:41:36 10° SE daylight
27 Jan - 16:15:01 10° W 16:17:13 14° SW 16:19:27 10° SSW daylight
28 Jan - 07:53:49 10° SW 07:57:32 72° SE 08:01:21 10° ENE night (unlit)
28 Jan - 09:35:01 10° WNW 09:38:18 27° NNW 09:41:41 10° NE visible
28 Jan - 11:16:50 10° NW 11:19:44 19° N 11:22:44 10° NE visible
28 Jan - 12:57:17 10° NW 13:01:03 36° NNE 13:05:02 10° E daylight
28 Jan - 14:37:36 10° WNW 14:41:39 50° SW 14:45:58 10° SE daylight
29 Jan - 06:19:39 10° S 06:22:03 16° SE 06:24:27 10° E night (unlit)
29 Jan - 07:58:22 10° WSW 08:02:06 70° NNW 08:05:55 10° NE night (unlit)
29 Jan - 09:40:02 10° WNW 09:43:05 22° NNW 09:46:13 10° NE visible
29 Jan - 11:21:33 10° NW 11:24:34 21° N 11:27:43 10° ENE visible
29 Jan - 13:01:47 10° NW 13:05:43 50° NNE 13:09:55 10° ESE daylight
29 Jan - 14:42:25 10° WNW 14:46:08 31° SW 14:50:01 10° SSE daylight
30 Jan - 06:23:11 10° SSW 06:26:26 28° SE 06:29:40 10° ENE night (unlit)
30 Jan - 08:03:07 10° WSW 08:06:43 45° NNW 08:10:25 10° NE night (unlit)
30 Jan - 09:45:03 10° NW 09:47:55 20° N 09:50:51 10° NE visible
30 Jan - 11:26:09 10° NW 11:29:23 24° NNE 11:32:45 10° ENE visible
30 Jan - 13:06:17 10° NW 13:10:20 75° NNE 13:14:39 10° ESE daylight
30 Jan - 14:47:32 10° W 14:50:31 19° SW 14:53:38 10° S daylight
31 Jan - 06:27:14 10° SW 06:30:52 48° SE 06:34:30 10° ENE night (unlit)
31 Jan - 08:08:01 10° W 08:11:25 32° NNW 08:14:54 10° NE night (unlit)
31 Jan - 09:49:59 10° NW 09:52:46 19° N 09:55:36 10° NE visible
31 Jan - 11:30:41 10° NW 11:34:09 29° NNE 11:37:46 10° E visible
31 Jan - 13:10:52 10° WNW 13:14:53 71° SW 13:19:11 10° SE daylight
31 Jan - 14:53:38 10° WSW 14:54:53 11° SW 14:56:08 10° SW daylight
01 Feb - 04:54:30 10° SE 04:55:29 11° SE 04:56:27 10° ESE night (unlit)
01 Feb - 06:31:37 10° SW 06:35:22 83° SE 06:39:08 10° ENE night (unlit)
01 Feb - 08:13:00 10° WNW 08:16:10 25° NNW 08:19:24 10° NE night (unlit)
01 Feb - 09:54:48 10° NW 09:57:36 19° N 10:00:29 10° NE visible
01 Feb - 11:35:10 10° NW 11:38:52 38° NNE 11:42:45 10° E visible
01 Feb - 13:15:32 10° WNW 13:19:23 43° SW 13:23:28 10° SSE daylight
02 Feb - 04:57:05 10° S 04:59:49 19° SE 05:02:31 10° E night (unlit)
02 Feb - 06:36:14 10° WSW 06:39:56 61° NNW 06:43:41 10° NE night (unlit)
02 Feb - 08:18:03 10° WNW 08:20:58 21° N 08:23:57 10° NE night (unlit)
02 Feb - 09:59:28 10° NW 10:02:26 21° N 10:05:29 10° ENE visible
02 Feb - 11:39:39 10° NW 11:43:31 54° NNE 11:47:36 10° ESE visible
02 Feb - 13:20:25 10° WNW 13:23:50 26° SW 13:27:24 10° SSE daylight
